• In Norway
  • List of Countries
  • For 7 days
  • Water Temperature
  • Satellite Maps
  • Weather Map
  • Weather Widgets
  • user-avatar
    Login

    Hourly Weather Korçe

    Today, 24 September, Monday

    Time Temperature Precipitation Wind Pressure Humidity
    00:00 +16°C° 0 mm 1 mps 669 mmHg 68%
    01:00 +16°C° 0 mm 1 mps 669 mmHg 72%
    02:00 +15°C° 0 mm 1 mps 669 mmHg 74%
    03:00 +15°C° 0 mm 1 mps 669 mmHg 76%
    04:00 +15°C° 0 mm 1 mps 668 mmHg 78%
    05:00 +15°C° 0 mm 1 mps 668 mmHg 75%
    06:00 +16°C° 0 mm 1 mps 669 mmHg 71%
    07:00 +18°C° 0 mm 1 mps 669 mmHg 68%
    08:00 +19°C° 0 mm 2 mps 669 mmHg 58%
    09:00 +21°C° 0 mm 2 mps 669 mmHg 49%
    10:00 +24°C° 0 mm 2 mps 670 mmHg 39%
    11:00 +25°C° 0 mm 2 mps 669 mmHg 37%
    12:00 +26°C° 0 mm 3 mps 669 mmHg 35%
    13:00 +26°C° 0 mm 3 mps 669 mmHg 33%
    14:00 +26°C° 0 mm 3 mps 669 mmHg 37%
    15:00 +25°C° 0 mm 3 mps 669 mmHg 40%
    16:00 +24°C° 0 mm 3 mps 668 mmHg 44%
    17:00 +21°C° 0 mm 2 mps 668 mmHg 54%
    18:00 +19°C° 0 mm 2 mps 668 mmHg 63%
    19:00 +18°C° 0 mm 1 mps 668 mmHg 73%
    20:00 +16°C° 0 mm 2 mps 669 mmHg 76%
    21:00 +16°C° 0 mm 2 mps 669 mmHg 78%
    22:00 +15°C° 0 mm 2 mps 669 mmHg 81%
    23:00 +14°C° 0 mm 2 mps 669 mmHg 79%

    Tomorrow, 25 September, Tuesday

    Time Temperature Precipitation Wind Pressure Humidity
    00:00 +13°C° 0 mm 2 mps 669 mmHg 77%
    01:00 +13°C° 0 mm 2 mps 669 mmHg 75%
    02:00 +12°C° 0 mm 2 mps 669 mmHg 72%
    03:00 +10°C° 0 mm 3 mps 669 mmHg 69%
    04:00 +10°C° 0 mm 3 mps 669 mmHg 66%
    05:00 +10°C° 0 mm 3 mps 670 mmHg 62%
    06:00 +10°C° 0 mm 3 mps 670 mmHg 58%
    07:00 +10°C° 0 mm 3 mps 670 mmHg 55%
    08:00 +12°C° 0 mm 3 mps 671 mmHg 49%
    09:00 +14°C° 0 mm 3 mps 672 mmHg 43%
    10:00 +17°C° 0 mm 3 mps 672 mmHg 37%
    11:00 +18°C° 0 mm 3 mps 672 mmHg 36%
    12:00 +19°C° 0 mm 3 mps 672 mmHg 34%
    13:00 +20°C° 0 mm 3 mps 673 mmHg 32%
    14:00 +19°C° 0 mm 3 mps 672 mmHg 33%
    15:00 +19°C° 0 mm 3 mps 672 mmHg 33%
    16:00 +18°C° 0 mm 4 mps 672 mmHg 33%
    17:00 +16°C° 0 mm 3 mps 672 mmHg 35%
    18:00 +13°C° 0 mm 3 mps 672 mmHg 37%
    19:00 +11°C° 0 mm 3 mps 672 mmHg 39%
    20:00 +10°C° 0 mm 3 mps 672 mmHg 38%
    21:00 +10°C° 0 mm 3 mps 672 mmHg 37%
    22:00 +9°C° 0 mm 3 mps 673 mmHg 37%
    23:00 +8°C° 0 mm 3 mps 673 mmHg 38%

    Day after tomorrow, 26 September, Wednesday

    Time Temperature Precipitation Wind Pressure Humidity
    00:00 +8°C° 0 mm 3 mps 672 mmHg 40%
    01:00 +7°C° 0 mm 3 mps 672 mmHg 42%
    02:00 +5°C° 0 mm 3 mps 672 mmHg 44%
    03:00 +5°C° 0 mm 3 mps 672 mmHg 46%
    04:00 +4°C° 0 mm 3 mps 672 mmHg 49%
    05:00 +5°C° 0 mm 3 mps 672 mmHg 48%
    06:00 +5°C° 0 mm 3 mps 673 mmHg 47%
    07:00 +5°C° 0 mm 3 mps 673 mmHg 46%
    08:00 +7°C° 0 mm 4 mps 674 mmHg 42%
    09:00 +10°C° 0 mm 4 mps 674 mmHg 38%
    10:00 +12°C° 0 mm 4 mps 675 mmHg 33%
    11:00 +12°C° 0 mm 5 mps 675 mmHg 32%
    12:00 +13°C° 0 mm 5 mps 675 mmHg 30%
    13:00 +14°C° 0 mm 5 mps 675 mmHg 29%
    14:00 +13°C° 0 mm 5 mps 675 mmHg 29%
    15:00 +13°C° 0 mm 5 mps 674 mmHg 28%
    16:00 +12°C° 0 mm 5 mps 674 mmHg 28%
    17:00 +11°C° 0 mm 4 mps 674 mmHg 31%
    18:00 +8°C° 0 mm 4 mps 674 mmHg 34%
    19:00 +7°C° 0 mm 3 mps 674 mmHg 37%
    20:00 +5°C° 0 mm 3 mps 674 mmHg 39%
    21:00 +5°C° 0 mm 3 mps 674 mmHg 41%
    22:00 +4°C° 0 mm 3 mps 674 mmHg 43%
    23:00 +4°C° 0 mm 3 mps 674 mmHg 45%

    27 September, Thursday

    Time Temperature Precipitation Wind Pressure Humidity
    00:00 +3°C° 0 mm 3 mps 674 mmHg 47%
    01:00 +4°C° 0 mm 2 mps 674 mmHg 49%
    02:00 +3°C° 0 mm 2 mps 674 mmHg 51%
    03:00 +3°C° 0 mm 2 mps 673 mmHg 52%
    04:00 +2°C° 0 mm 2 mps 673 mmHg 54%
    05:00 +3°C° 0 mm 2 mps 673 mmHg 51%
    06:00 +3°C° 0 mm 3 mps 673 mmHg 48%
    07:00 +4°C° 0 mm 3 mps 674 mmHg 46%
    08:00 +7°C° 0 mm 3 mps 674 mmHg 38%
    09:00 +9°C° 0 mm 3 mps 674 mmHg 31%
    10:00 +12°C° 0 mm 4 mps 674 mmHg 24%
    11:00 +13°C° 0 mm 4 mps 674 mmHg 22%
    12:00 +14°C° 0 mm 4 mps 673 mmHg 20%
    13:00 +15°C° 0 mm 4 mps 673 mmHg 17%
    14:00 +15°C° 0 mm 4 mps 673 mmHg 18%
    15:00 +15°C° 0 mm 4 mps 672 mmHg 19%
    16:00 +15°C° 0 mm 4 mps 672 mmHg 19%
    17:00 +13°C° 0 mm 3 mps 671 mmHg 23%
    18:00 +11°C° 0 mm 3 mps 671 mmHg 26%
    19:00 +9°C° 0 mm 2 mps 671 mmHg 29%
    20:00 +8°C° 0 mm 2 mps 670 mmHg 31%
    21:00 +8°C° 0 mm 2 mps 670 mmHg 33%
    22:00 +7°C° 0 mm 2 mps 670 mmHg 35%
    23:00 +7°C° 0 mm 2 mps 670 mmHg 37%

    28 September, Friday

    Time Temperature Precipitation Wind Pressure Humidity
    00:00 +7°C° 0 mm 2 mps 669 mmHg 39%
    01:00 +7°C° 0 mm 2 mps 669 mmHg 41%
    02:00 +6°C° 0 mm 2 mps 669 mmHg 42%
    03:00 +6°C° 0 mm 2 mps 669 mmHg 43%
    04:00 +6°C° 0 mm 2 mps 668 mmHg 45%
    05:00 +7°C° 0 mm 2 mps 669 mmHg 43%
    06:00 +8°C° 0 mm 2 mps 669 mmHg 42%
    07:00 +8°C° 0 mm 2 mps 669 mmHg 41%
    08:00 +12°C° 0 mm 2 mps 669 mmHg 35%
    09:00 +13°C° 0 mm 3 mps 670 mmHg 29%
    10:00 +16°C° 0 mm 3 mps 670 mmHg 23%
    11:00 +17°C° 0 mm 3 mps 670 mmHg 24%
    12:00 +18°C° 0 mm 3 mps 670 mmHg 25%
    13:00 +19°C° 0 mm 3 mps 670 mmHg 26%
    14:00 +19°C° 0 mm 3 mps 669 mmHg 28%
    15:00 +18°C° 0 mm 3 mps 669 mmHg 31%
    16:00 +18°C° 0 mm 2 mps 668 mmHg 33%
    17:00 +16°C° 0 mm 2 mps 668 mmHg 38%
    18:00 +14°C° 0 mm 2 mps 667 mmHg 43%
    19:00 +12°C° 0 mm 1 mps 667 mmHg 48%
    20:00 +11°C° 0 mm 1 mps 667 mmHg 48%
    21:00 +10°C° 0 mm 2 mps 667 mmHg 49%
    22:00 +10°C° 0 mm 2 mps 667 mmHg 50%
    23:00 +10°C° 0 mm 2 mps 666 mmHg 50%

    29 September, Saturday

    Time Temperature Precipitation Wind Pressure Humidity
    00:00 +9°C° 0 mm 2 mps 666 mmHg 51%
    01:00 +9°C° 0 mm 2 mps 666 mmHg 52%
    02:00 +9°C° 0.1 mm 2 mps 666 mmHg 54%
    03:00 +9°C° 0.1 mm 2 mps 665 mmHg 57%
    04:00 +9°C° 0.1 mm 2 mps 665 mmHg 59%
    05:00 +10°C° 0 mm 2 mps 665 mmHg 59%
    06:00 +10°C° 0 mm 2 mps 666 mmHg 59%
    07:00 +12°C° 0 mm 2 mps 666 mmHg 59%
    08:00 +14°C° 0 mm 1 mps 666 mmHg 55%
    09:00 +16°C° 0 mm 1 mps 667 mmHg 51%
    10:00 +19°C° 0 mm 1 mps 667 mmHg 47%
    11:00 +20°C° 0 mm 1 mps 667 mmHg 46%
    12:00 +19°C° 0 mm 2 mps 667 mmHg 44%
    13:00 +20°C° 0 mm 2 mps 667 mmHg 42%
    14:00 +19°C° 0.1 mm 2 mps 667 mmHg 43%
    15:00 +19°C° 0.1 mm 2 mps 667 mmHg 44%
    16:00 +18°C° 0.1 mm 2 mps 666 mmHg 46%
    17:00 +16°C° 0 mm 2 mps 666 mmHg 50%
    18:00 +15°C° 0 mm 1 mps 666 mmHg 53%
    19:00 +13°C° 0 mm 1 mps 666 mmHg 57%
    20:00 +13°C° 0 mm 1 mps 666 mmHg 59%
    21:00 +12°C° 0 mm 1 mps 666 mmHg 60%
    22:00 +12°C° 0 mm 1 mps 666 mmHg 61%
    23:00 +11°C° 0 mm 1 mps 666 mmHg 62%
    Show more